Wind_Speed
48 51 48 48 51 51 46 55 50 53 59 63 62 67 64 65 66 71 74 73 74 77 81 86 82 78 72 68 68 64 64 64 65 64 60 58 60 61 62 64 65 65 65
50 50 53 50 53 51 50 56 60 59 62 65 66 61 65 72 71 72 72 76 83 82 80 78 76 70 70 70 68 66 67 68 69 66 65 66 68 68 69 70 70 70 69
55 57 59 57 58 57 59 61 61 60 63 63 68 73 76 68 72 77 83 85 81 82 77 74 70 68 67 68 69 71 73 74 73 71 71 73 74 75 75 75 75 74 72
57 57 62 56 50 53 56 63 64 64 65 66 68 70 69 72 80 82 80 78 77 73 72 69 67 67 69 71 73 75 77 77 77 77 78 78 79 80 79 80 78 77 77
58 59 57 56 56 61 64 65 65 66 67 70 70 72 75 78 79 76 76 78 70 66 66 67 68 69 72 75 76 78 80 80 79 80 81 81 82 81 82 82 82 81 80
58 61 62 62 59 61 62 65 69 72 80 77 79 81 81 77 79 77 75 70 70 72 70 66 70 71 73 76 77 80 84 85 85 85 85 84 84 84 84 83 82 83 83
60 56 57 60 64 65 67 71 71 72 71 75 80 79 77 75 76 78 71 71 70 69 71 75 77 77 77 78 78 79 83 88 88 87 87 87 88 86 85 85 86 86 86
57 62 61 63 65 67 67 69 74 76 79 84 85 78 76 73 68 69 67 67 71 73 75 78 85 87 86 85 84 82 85 87 89 90 91 91 90 88 88 88 88 89 91
61 66 68 70 73 72 75 79 81 81 78 80 81 77 78 74 71 67 65 67 70 76 80 87 90 86 87 87 88 89 92 92 91 92 93 92 90 90 91 91 92 94 95
65 66 66 67 67 72 75 77 79 74 75 74 76 77 74 73 72 72 71 72 74 78 82 89 92 93 93 90 91 90 95 96 95 94 93 93 92 92 93 94 96 97 98
63 65 67 67 71 73 74 78 76 73 75 73 71 69 75 76 75 74 77 83 84 86 89 93 90 89 95 95 93 95 98 100 98 96 96 95 93 94 95 96 95 94 96
59 61 64 67 72 72 73 73 70 70 69 70 73 75 75 77 76 78 82 86 91 97 99 98 96 95 96 100 102 103 104 104 102 98 98 97 98 99 98 95 94 94 94
60 59 61 64 64 66 66 67 68 67 70 73 77 80 79 80 82 86 89 93 98 101 103 103 103 102 102 104 105 106 106 103 102 101 103 104 107 103 98 95 92 91 90
46 51 57 58 59 63 63 65 66 71 74 78 78 78 81 84 89 92 98 100 101 101 103 106 108 108 109 110 110 108 102 102 104 104 107 111 109 104 98 95 89 85 82
49 56 58 56 61 63 65 68 72 74 74 74 76 81 86 89 94 95 99 101 101 101 102 105 109 112 113 115 115 111 105 104 104 108 111 110 106 101 95 90 83 78 74
61 52 50 58 64 68 70 73 74 75 75 77 83 86 89 94 96 100 101 102 104 105 105 106 111 115 117 118 117 113 108 107 109 113 110 105 102 100 95 87 76 73 69
60 58 59 60 64 69 73 78 78 78 81 84 88 90 93 96 98 100 103 104 107 109 108 108 113 116 119 121 118 114 111 110 114 112 109 104 98 96 90 82 76 71 65
59 59 61 63 67 71 75 77 77 80 84 86 89 93 96 98 100 102 106 107 108 110 112 111 116 121 122 122 121 115 115 118 113 112 109 104 96 92 82 77 71 66 60
56 59 60 61 64 67 70 74 80 82 86 89 92 94 95 98 101 104 105 106 110 114 117 120 122 121 121 122 120 117 116 118 114 112 108 97 90 83 80 74 67 61 56
56 55 58 62 65 68 72 75 78 80 83 85 88 93 97 100 101 102 106 111 115 117 122 123 120 119 121 121 121 120 118 115 110 106 95 87 81 75 72 67 62 59 54
60 63 63 64 64 65 66 67 71 75 80 85 90 93 97 100 105 110 113 115 119 122 122 122 120 121 119 121 124 123 118 110 104 99 87 82 77 72 66 62 59 57 53
58 57 56 57 59 62 65 69 74 80 83 85 91 96 100 104 107 109 112 114 116 117 116 121 122 123 123 125 126 123 117 109 99 94 81 78 72 67 63 59 57 56 52
52 55 58 61 63 66 68 71 74 80 83 92 96 100 103 104 104 106 107 107 108 112 115 118 120 122 125 126 125 119 110 102 92 88 78 70 69 66 59 57 55 54 50
58 60 62 64 64 66 69 76 80 84 89 92 92 93 95 96 99 101 102 104 106 109 114 118 121 121 122 119 117 111 104 93 87 81 74 66 67 62 59 55 54 52 49
60 60 62 64 66 68 74 78 82 83 89 93 93 96 97 97 99 100 101 104 107 111 114 117 120 121 119 112 107 102 95 89 80 76 73 64 64 59 58 53 51 49 48
58 61 65 68 73 72 74 83 87 90 92 95 95 97 98 100 100 102 105 107 109 111 114 116 117 116 111 105 98 92 87 81 73 71 68 61 60 54 55 50 48 46 46
Wind_Direction
246 249 256 257 262 269 268 271 276 278 281 285 287 293 298 300 298 298 298 296 298 298 295 297 300 303 300 297 295 294 294 296 298 298 295 292 291 291 290 289 287 284 280
245 252 257 262 256 263 268 270 276 281 286 288 286 291 292 293 297 296 295 294 297 299 299 300 300 298 297 297 297 298 299 300 301 298 294 292 291 290 290 289 288 286 282
244 250 259 260 259 266 271 273 278 284 286 291 293 291 293 293 296 294 293 295 296 301 300 298 296 299 299 299 300 301 302 302 301 298 296 294 293 292 291 291 290 286 282
245 253 260 258 263 270 274 278 281 285 287 287 288 288 289 294 294 295 294 296 300 299 298 300 301 301 301 302 303 302 301 301 300 300 299 298 296 295 293 292 290 287 284
252 253 260 260 267 272 275 279 278 281 284 283 285 290 290 294 295 297 300 301 298 297 299 301 302 303 304 304 303 301 300 300 301 300 299 297 295 294 293 292 290 288 286
256 258 263 262 268 275 275 277 279 279 285 287 288 285 293 294 299 298 299 296 298 300 299 300 301 302 303 303 303 301 300 299 299 299 297 296 294 293 291 289 288 287 287
262 262 267 268 272 272 275 275 279 281 287 287 287 290 292 296 296 296 298 297 298 300 304 307 306 305 304 302 301 300 299 300 299 297 297 296 294 293 292 289 288 287 286
261 263 264 263 266 268 274 276 282 284 287 286 289 292 293 294 293 295 297 300 304 307 307 310 309 307 304 302 299 298 298 298 298 299 298 297 296 294 292 289 287 286 284
256 257 261 269 272 275 280 282 283 285 287 288 291 292 293 293 293 294 295 297 301 304 307 307 305 302 300 299 300 303 301 300 300 300 299 298 297 295 293 291 289 287 283
260 265 269 272 275 275 277 283 285 287 288 290 293 294 295 295 296 296 297 300 302 303 303 303 303 301 301 302 303 302 301 302 303 302 300 299 298 297 295 293 290 286 282
266 268 274 276 278 279 282 285 286 286 288 290 291 294 296 298 299 299 304 305 303 302 303 301 299 298 300 300 302 304 306 305 305 304 301 301 300 299 299 296 292 287 284
274 277 277 281 281 282 282 282 283 286 289 292 294 295 294 297 299 303 301 301 303 302 302 300 298 299 303 308 309 310 309 307 306 304 304 305 305 305 302 298 293 289 286
275 278 279 278 280 280 281 282 285 287 289 292 295 297 299 300 300 301 301 303 303 302 302 304 305 308 310 311 311 310 309 306 306 308 308 309 308 306 302 299 295 292 288
281 284 284 283 282 281 280 284 287 290 291 293 297 298 299 298 298 300 302 302 301 304 306 307 309 310 311 311 310 310 309 309 309 309 310 309 308 306 304 301 297 293 289
284 287 284 282 281 281 284 286 287 290 293 293 293 295 296 296 296 296 298 301 303 305 307 307 307 309 310 310 311 311 311 310 310 310 309 309 308 306 303 301 299 295 291
284 278 269 269 272 278 281 283 286 288 289 290 291 292 292 293 297 301 302 302 304 305 305 306 307 307 308 310 310 311 311 311 311 310 310 310 310 308 306 303 299 296 293
272 267 273 274 275 276 277 280 283 286 288 289 290 294 297 298 299 300 302 303 303 305 306 305 306 306 309 310 310 310 311 311 311 311 312 311 310 307 305 303 302 297 294
276 274 274 274 274 276 278 281 283 284 287 290 294 295 296 297 300 301 301 303 304 303 303 304 306 306 308 309 310 310 311 311 312 312 312 312 310 306 303 302 299 297 293
272 275 277 279 280 280 281 283 284 286 289 292 293 295 297 298 300 301 302 303 302 303 304 304 305 307 306 308 308 309 310 311 311 312 311 310 307 305 303 302 299 295 291
279 279 282 282 281 281 283 284 285 288 291 294 295 296 298 299 301 301 300 301 303 304 304 305 307 306 307 308 308 309 311 311 311 311 310 308 306 304 301 299 297 293 290
278 280 283 284 285 287 289 291 292 294 295 296 296 298 301 301 301 300 301 301 302 305 306 307 306 307 308 308 309 310 311 312 313 311 310 309 306 304 301 299 296 293 290
283 285 287 289 290 291 293 296 297 297 299 302 303 303 303 302 300 301 303 305 306 306 307 306 308 309 310 309 310 310 312 313 313 311 310 309 305 302 301 298 295 293 290
287 288 289 292 295 296 298 300 301 301 302 304 303 302 301 301 302 303 304 306 306 306 307 307 309 308 308 308 309 310 311 312 312 309 309 306 303 300 300 297 295 292 290
290 292 294 295 297 298 300 304 304 305 305 305 306 308 309 310 309 308 307 307 307 308 307 308 307 306 306 307 307 309 310 310 310 308 306 305 301 300 298 296 294 291 288
293 294 295 296 297 301 304 303 305 304 305 307 311 311 310 309 311 310 310 309 309 308 307 307 307 306 307 308 308 309 309 310 308 306 304 304 300 299 296 295 292 289 286
294 294 295 296 298 302 304 303 305 307 309 311 310 312 312 312 312 311 311 310 308 307 307 306 306 306 307 309 309 309 308 307 306 304 303 302 299 298 295 294 291 288 284
Height
10707 10708 10710 10710 10708 10706 10708 10708 10708 10708 10704 10701 10697 10694 10691 10688 10689 10680 10678 10674 10669 10665 10658 10653 10647 10639 10633 10629 10626 10622 10617 10613 10608 10604 10602 10600 10597 10594 10591 10587 10585 10585 10584
10700 10701 10701 10702 10700 10699 10700 10700 10699 10698 10694 10690 10687 10684 10680 10678 10675 10671 10663 10662 10656 10650 10642 10637 10630 10624 10618 10614 10608 10605 10600 10595 10591 10588 10585 10582 10579 10577 10574 10570 10567 10565 10564
10693 10694 10695 10695 10693 10692 10692 10691 10690 10687 10683 10678 10677 10673 10669 10664 10659 10657 10655 10644 10639 10633 10626 10621 10615 10608 10603 10598 10592 10587 10581 10576 10572 10569 10566 10562 10558 10555 10551 10548 10546 10544 10543
10686 10687 10686 10684 10685 10684 10682 10679 10678 10675 10673 10669 10664 10659 10656 10652 10646 10641 10636 10635 10627 10615 10608 10603 10598 10593 10587 10581 10575 10570 10564 10559 10554 10550 10545 10539 10534 10531 10527 10524 10521 10518 10517
10678 10678 10678 10678 10677 10674 10672 10671 10668 10665 10663 10657 10652 10647 10643 10638 10631 10624 10619 10613 10607 10606 10601 10590 10583 10578 10572 10565 10560 10554 10546 10540 10537 10533 10526 10521 10515 10510 10504 10499 10494 10491 10489
10668 10668 10670 10668 10668 10665 10662 10660 10657 10655 10648 10644 10641 10633 10628 10625 10619 10613 10606 10601 10593 10581 10582 10580 10572 10567 10559 10551 10545 10536 10525 10517 10516 10511 10506 10501 10494 10489 10484 10479 10473 10467 10463
10659 10660 10659 10658 10657 10654 10652 10648 10646 10640 10636 10629 10624 10621 10616 10610 10605 10599 10592 10586 10578 10572 10562 10555 10550 10547 10546 10539 10533 10524 10508 10497 10494 10489 10483 10477 10472 10467 10461 10455 10449 10443 10439
10652 10654 10651 10648 10646 10641 10637 10633 10631 10626 10622 10614 10611 10607 10602 10601 10595 10585 10577 10570 10559 10552 10550 10546 10536 10526 10520 10516 10513 10508 10495 10486 10476 10467 10458 10452 10446 10440 10434 10428 10423 10418 10413
10643 10643 10641 10637 10635 10630 10623 10621 10616 10612 10607 10601 10592 10590 10585 10580 10579 10574 10570 10563 10554 10544 10535 10527 10521 10515 10507 10500 10491 10482 10470 10463 10457 10448 10435 10426 10419 10412 10404 10398 10392 10386 10380
10633 10630 10628 10627 10623 10619 10612 10606 10603 10596 10591 10586 10580 10568 10566 10564 10560 10555 10552 10547 10542 10533 10526 10517 10505 10490 10481 10477 10474 10467 10448 10437 10431 10421 10409 10401 10394 10384 10375 10367 10358 10349 10341
10620 10618 10617 10614 10610 10606 10600 10593 10588 10581 10576 10570 10569 10565 10552 10546 10543 10538 10528 10518 10521 10515 10508 10502 10493 10484 10465 10457 10452 10441 10426 10408 10400 10391 10379 10371 10364 10353 10342 10329 10317 10308 10299
10609 10609 10605 10597 10595 10591 10585 10581 10575 10569 10563 10558 10550 10547 10545 10537 10529 10522 10516 10506 10493 10484 10478 10470 10467 10460 10449 10429 10418 10409 10395 10379 10369 10362 10348 10338 10328 10316 10305 10293 10280 10270 10260
10597 10598 10591 10587 10582 10577 10571 10567 10562 10557 10551 10546 10540 10531 10524 10518 10511 10503 10496 10487 10477 10464 10452 10438 10429 10425 10417 10407 10396 10384 10370 10355 10340 10330 10314 10302 10291 10282 10271 10257 10245 10235 10225
10588 10585 10579 10573 10567 10563 10559 10554 10549 10544 10540 10534 10526 10518 10511 10501 10492 10485 10472 10465 10455 10444 10430 10414 10401 10393 10385 10376 10367 10358 10349 10331 10315 10302 10287 10272 10259 10244 10234 10222 10213 10203 10193
10576 10574 10568 10560 10554 10550 10547 10542 10538 10533 10527 10520 10514 10506 10497 10487 10475 10468 10455 10444 10434 10426 10415 10396 10380 10366 10357 10346 10336 10326 10316 10304 10291 10277 10263 10246 10230 10217 10205 10191 10183 10173 10166
10566 10562 10557 10550 10544 10540 10536 10531 10525 10519 10513 10505 10495 10489 10482 10470 10460 10445 10434 10424 10411 10400 10394 10377 10360 10346 10333 10323 10307 10296 10288 10276 10262 10247 10231 10217 10198 10179 10169 10161 10156 10146 10141
10553 10547 10543 10538 10535 10530 10525 10518 10512 10505 10497 10489 10479 10471 10460 10450 10440 10428 10414 10401 10389 10376 10369 10359 10342 10323 10309 10293 10282 10270 10259 10249 10234 10217 10202 10187 10175 10157 10143 10135 10129 10121 10116
10538 10533 10529 10525 10521 10517 10511 10504 10496 10491 10483 10474 10463 10453 10443 10431 10420 10406 10393 10381 10367 10353 10342 10336 10319 10303 10286 10269 10253 10242 10229 10214 10205 10189 10175 10160 10147 10133 10123 10112 10108 10100 10095
10523 10519 10515 10511 10506 10501 10496 10489 10481 10473 10465 10456 10446 10435 10424 10412 10399 10385 10371 10358 10344 10330 10315 10305 10298 10280 10263 10245 10230 10218 10209 10193 10179 10164 10150 10138 10124 10111 10097 10089 10085 10080 10076
10508 10504 10500 10495 10491 10485 10479 10472 10466 10459 10449 10438 10427 10415 10403 10390 10377 10364 10351 10335 10321 10307 10289 10275 10267 10253 10237 10219 10199 10187 10177 10164 10155 10137 10127 10112 10099 10090 10079 10072 10065 10059 10056
10493 10489 10485 10480 10475 10468 10463 10456 10448 10440 10430 10419 10407 10395 10383 10369 10355 10341 10326 10312 10297 10280 10262 10246 10235 10224 10211 10190 10171 10156 10143 10135 10128 10106 10099 10088 10075 10065 10058 10052 10044 10040 10036
10477 10473 10468 10463 10458 10452 10447 10439 10430 10420 10409 10398 10387 10374 10359 10345 10331 10317 10302 10286 10271 10255 10241 10218 10206 10189 10176 10158 10143 10126 10112 10103 10098 10078 10073 10064 10052 10044 10038 10033 10026 10021 10018
10462 10457 10452 10447 10442 10435 10428 10421 10411 10401 10390 10377 10364 10351 10336 10319 10304 10293 10281 10267 10252 10232 10211 10198 10183 10168 10149 10133 10116 10101 10090 10080 10072 10056 10052 10046 10032 10024 10021 10014 10008 10004 10001
10448 10442 10436 10430 10425 10417 10409 10400 10391 10381 10370 10356 10342 10327 10313 10298 10280 10266 10256 10243 10229 10212 10191 10175 10158 10147 10129 10114 10095 10079 10067 10059 10050 10036 10028 10028 10011 10006 10000 9996 9991 9987 9984
10431 10426 10419 10412 10407 10403 10391 10379 10372 10361 10348 10335 10318 10303 10289 10275 10257 10240 10229 10215 10204 10188 10169 10151 10130 10111 10096 10089 10077 10060 10045 10036 10028 10016 10006 10006 9993 9990 9981 9979 9974 9971 9967
10413 10407 10401 10394 10388 10387 10375 10360 10348 10339 10328 10313 10298 10282 10264 10249 10233 10216 10201 10188 10177 10161 10145 10127 10106 10088 10074 10061 10049 10037 10027 10016 10010 10000 9988 9986 9977 9974 9964 9963 9958 9956 9952